STARLINK-34015, 63854

Orbit data source: Space-Track

STARLINK-34015, 63854 is a payload satellite owned by SpaceX/Seattle (US) in LEO that was launched on Wed, 07 May 2025 UTC via an FALCON 9 launch vehicle from the Air Force Eastern Test Range (AFETR). Payload-class satellites include a variety of spacecraft equipped with specific instruments for various scientific and technological missions. These include communications satellites like Starlink; space stations such as the ISS; scientific satellites like the Hubble; Earth observation satellites from companies like Planet Labs, Umbra, and HawkEye 360; GPS; miniature CubeSats for education and research; and military/defense satellites.

Loading next visibility...
Identifier
63854, 2025-093U
Orbit
LEO
Country
Flag of USUS
Related business
Manufacturer
SpaceX/Seattle
Mission
Operational Commercial Communications
Bus & Motor
STARLINK V2MO, Unknown motor
Mass
575 kg wet, ~530 kg dry
Launch date (UTC)
2025-05-07 (7 months ago)
Launch vehicle
FALCON 9
Launch site
Air Force Eastern Test Range (AFETR)
Object type
Payload
Rocket body
Debris
Shape & HBR
Box + 2 Pan, 17.7 m
Radar Cross Section
36.964 m², Large (>1 m²)

Expand to show TLE details & history
Last TLE update: 17 hours ago

TLE from 17 hours ago
0 STARLINK-34015
1 63854U 25093U   25348.91934504  .00021067  00000-0  77267-3 0  9990
2 63854  42.9988 196.9640 0001780 256.7883 103.2771 15.27588910 34844
Epoch: 2025-12-14T22:03Z
TLE epoch observation values (Epoch: 2025-12-14T22:03:51.411Z)
Latitude
0.00005°
Longitude
142.17448°
Altitude
483.078 km
Speed
7.626 km/s
True Right ascension
13h 07m 51s
True Declination
0° 00' 00"
Sunlit
Object was in daylight at epoch
Visualization orbit readout
Latitude
Unknown
Longitude
Unknown
Altitude
Unknown
Speed
Unknown
Apparent Right ascension
Unknown
Apparent Declination
Unknown
Sunlit
N/A
Visualization observer readout
Local Sidereal Time
13:22:54
Azimuth
Unknown
Elevation
Unknown
Doppler factor
Unknown
Orbital elements
Apogee altitude
486.189 km
Perigee altitude
483.746 km
Semi-major axis
6,863.105 km
Eccentricity
0.00018
Inclination
42.9988°
RAAN
196.964°
Arg. of periapsis
256.7883°
True anomaly
103.29695°
Mean anomaly
103.2771°
Eccentric anomaly
103.28703°
Mean motion
3.81735 °/min
Orbital period
94.31 mins
BSTAR
0.00077267
Loading maneuver chart data...
Computing Atmospheric mass density...
Loading historical data...
Loading historical data...
Loading historical data...
Loading historical data...
Loading historical data...
Loading historical data...
Loading historical data...

Documentation

Showing up to 5 results
|